Probability
0 0 0 0 0 0 0 0 0 0 0 0 0 0 0 0 0 0 0 0 0 0 0 0 0 0 0 0 0 0 0 0 0 0 0 0 0 0 0 0 0 0 0
0 0 0 0 0 0 0 0 0 0 0 0 0 0 0 0 0 0 0 0 0 0 0 0 0 0 0 0 0 0 0 0 0 0 0 0 0 0 0 0 0 0 0
0 0 0 0 0 0 0 0 0 0 0 0 0 0 0 0 0 0 0 0 0 0 0 0 0 0 0 0 0 0 0 0 0 0 0 0 0 0 0 0 0 0 0
0 0 0 0 0 0 0 0 0 0 0 0 0 0 0 0 0 0 0 0 0 0 0 0 0 0 0 0 0 0 0 0 0 0 0 0 0 0 0 0 0 0 0
0 0 0 0 0 0 0 0 0 0 0 0 0 0 0 0 0 0 0 0 0 0 0 0 0 0 0 0 0 0 0 0 0 0 0 0 0 0 0 0 0 0 0
0 0 0 0 0 0 0 0 0 0 0 0 0 0 0 0 0 0 0 0 0 0 0 0 0 0 0 0 0 0 0 0 0 0 0 0 0 0 0 0 0 0 0
0 0 0 0 0 0 0 0 0 0 0 0 0 0 0 0 0 0 0 0 0 0 0 0 0 0 0 0 0 0 0 0 0 0 0 0 0 0 0 0 0 0 0
0 0 0 0 0 0 0 0 0 0 0 0 0 0 0 0 0 0 0 0 0 0 0 0 0 0 0 0 0 0 0 0 0 0 0 0 0 0 0 0 0 0 0
0 0 0 0 0 0 0 0 0 0 0 0 0 0 0 0 0 0 0 0 0 0 0 0 0 0 0 0 0 0 0 0 0 0 0 0 0 0 0 0 0 0 0
0 0 0 0 0 0 0 0 0 0 0 0 0 0 0 0 0 0 0 0 0 0 0 0 0 0 0 0 0 0 0 0 0 0 0 0 0 0 0 0 0 0 0
0 0 0 0 0 0 0 0 0 0 0 0 0 0 0 0 0 0 0 0 0 0 0 0 0 0 0 0 0 0 0 0 0 0 0 0 0 0 0 0 0 0 0
0 0 0 0 0 0 0 0 0 0 0 0 0 0 0 0 0 0 0 0 0 0 0 0 0 0 0 0 0 0 0 0 0 0 0 0 0 0 0 0 0 0 0
0 0 0 0 0 0 0 0 0 0 0 0 0 0 0 0 0 0 0 0 0 0 0 0 0 0 0 0 0 0 0 0 0 0 0 0 0 0 0 0 0 0 0
0 0 0 0 0 0 0 0 0 0 0 0 0 0 0 0 0 0 0 0 0 0 0 0 0 0 0 0 0 0 0 0 0 0 0 0 0 0 0 0 0 0 0
0 0 0 0 0 0 0 0 0 0 0 0 0 0 0 0 0 0 0 0 0 0 0 0 0 0 0 0 0 0 0 0 0 0 0 0 0 0 0 0 0 0 0
0 0 0 0 0 0 0 0 0 0 0 0 0 0 0 0 0 0 0 0 0 0 0 0 0 0 0 0 0 0 0 0 0 0 0 0 0 0 0 0 0 0 0
0 0 0 0 0 0 0 0 0 0 0 0 0 0 0 0 0 0 0 0 0 0 0 0 0 0 0 0 0 0 0 0 0 0 0 0 0 0 0 0 0 0 0
0 0 0 0 0 0 0 0 0 0 0 0 0 0 0 0 0 0 0 0 0 0 0 0 0 0 0 0 0 0 0 0 0 0 0 0 0 0 0 0 0 0 0
0 0 0 0 0 0 0 0 0 0 0 0 0 0 0 0 0 0 0 0 0 0 0 0 0 0 0 0 0 0 0 0 0 0 0 0 0 0 0 0 0 0 0
0 0 0 0 0 0 0 0 0 0 0 0 0 0 0 0 0 0 0 0 0 0 0 0 0 0 0 0 0 0 0 0 0 0 0 0 0 0 0 0 0 0 0
0 0 0 0 0 0 0 0 0 0 0 0 0 0 0 0 0 0 0 0 0 0 0 0 0 0 0 0 0 0 0 0 0 0 0 0 0 0 0 0 0 0 0
0 0 0 0 0 0 0 0 0 0 0 0 0 0 0 0 0 0 0 0 0 0 0 0 0 0 0 0 0 0 0 0 0 0 0 0 0 0 0 0 0 0 0
0 0 0 0 0 0 0 0 0 0 0 0 0 0 0 0 0 0 0 0 0 0 0 0 0 0 0 0 0 0 0 0 0 0 0 0 0 0 0 0 0 0 0
0 0 0 0 0 0 0 0 0 0 0 0 0 0 0 0 0 0 0 0 0 0 0 0 0 0 0 0 0 0 0 0 0 0 0 0 0 0 0 0 0 0 0
0 0 0 0 0 0 0 0 0 0 0 0 0 0 0 0 0 0 0 0 0 0 0 0 0 0 0 0 0 0 0 0 0 0 0 0 0 0 0 0 0 0 0
0 0 0 0 0 0 0 0 0 0 0 0 0 0 0 0 0 0 0 0 0 0 0 0 0 0 0 0 0 0 0 0 0 0 0 0 0 0 0 0 0 0 0
Wind_Speed
3 2 2 2 2 2 2 2 1 1 1 1 1 1 1 1 1 1 1 1 1 0 0 0 1 1 1 1 1 2 2 3 6 5 3 4 5 6 6 5 5 6 7
3 2 2 2 2 2 2 1 1 1 1 1 1 1 1 1 1 2 1 1 1 1 1 0 1 1 1 2 1 2 3 3 5 7 5 4 5 5 5 6 6 6 6
2 3 2 2 2 2 2 1 1 1 1 1 1 1 1 1 1 1 2 1 1 1 1 1 2 1 2 2 2 3 3 3 4 5 7 4 4 4 5 6 6 5 6
2 2 2 3 3 2 2 1 1 1 1 1 1 1 1 1 1 1 1 1 1 1 1 2 2 2 3 3 3 3 3 3 4 5 6 5 5 4 4 5 6 5 6
3 3 3 2 2 1 1 1 1 1 1 1 1 1 1 1 1 1 1 1 1 1 2 2 2 3 4 3 3 3 3 3 4 4 6 6 5 5 5 4 6 6 6
3 3 2 2 2 2 2 1 1 1 1 1 1 1 1 1 0 1 1 1 1 1 2 2 2 2 4 5 6 6 5 4 5 5 5 7 7 6 6 5 6 6 6
4 3 2 2 2 2 2 2 2 2 1 1 1 1 1 1 0 1 1 1 1 1 2 2 3 3 3 4 5 7 7 7 7 6 7 8 8 7 6 7 6 7 8
3 3 3 3 2 2 2 2 2 2 2 2 1 1 1 1 1 1 1 1 1 2 3 3 4 4 4 4 4 5 5 6 6 6 7 8 7 6 5 6 7 8 7
4 4 4 4 3 3 3 3 2 2 2 2 1 1 1 2 2 2 2 1 1 3 3 3 4 5 7 6 4 6 7 7 7 9 10 10 11 11 7 4 4 5 7
6 5 4 4 4 4 4 3 2 2 2 1 1 1 2 3 3 3 2 1 2 3 3 4 5 7 8 8 5 5 7 8 6 6 7 9 9 9 9 5 5 5 6
4 4 3 4 4 4 3 2 2 2 1 1 1 2 2 3 4 4 4 2 3 3 4 4 4 8 9 9 7 6 9 7 5 6 6 6 5 5 5 5 5 6 6
4 4 3 3 3 3 3 2 2 2 2 2 2 2 2 3 3 5 6 5 4 4 5 4 5 8 9 9 7 8 10 7 4 4 5 5 5 5 5 5 6 7 8
4 4 4 3 3 3 3 3 2 2 2 2 2 3 3 2 3 6 6 7 7 5 4 6 8 9 9 7 8 9 6 4 4 5 6 6 6 5 5 5 5 6 7
5 4 3 3 3 3 3 3 3 3 3 3 3 3 3 3 3 3 3 3 5 5 4 5 8 8 7 6 5 5 4 4 5 6 6 6 5 4 4 4 5 5 6
4 4 3 3 3 3 3 3 4 4 4 4 4 4 3 4 5 5 3 3 3 3 2 2 3 3 4 4 4 4 4 4 5 5 5 6 5 5 5 4 4 4 5
4 4 3 3 3 3 2 2 4 5 6 7 6 5 4 7 8 7 7 6 6 4 2 3 4 4 5 5 5 5 4 5 5 5 5 5 5 5 6 5 4 5 7
5 4 3 3 3 3 3 3 2 3 5 6 7 8 7 8 8 7 7 7 6 4 3 4 5 5 5 5 5 5 6 5 5 5 5 5 5 5 5 6 5 6 7
4 4 3 3 3 3 3 3 2 2 3 3 5 7 8 8 8 7 6 4 4 3 3 4 5 5 5 5 5 5 5 5 4 5 5 5 5 5 6 6 6 7 7
4 3 3 3 2 2 2 2 2 3 3 3 3 4 5 6 7 6 4 2 4 4 4 5 5 5 5 5 5 5 5 5 5 5 5 6 5 5 6 6 7 8 7
3 4 3 3 2 2 2 3 3 3 3 4 4 4 2 2 2 3 3 3 4 5 5 5 5 5 5 5 5 5 5 5 6 5 5 5 5 5 7 7 7 7 7
2 3 4 3 3 3 3 4 3 3 4 4 5 5 6 3 4 4 4 5 5 5 5 5 5 5 5 5 5 5 6 6 6 5 5 5 5 6 6 6 7 7 7
3 3 3 3 3 3 3 3 3 4 5 5 4 4 7 4 4 4 5 5 5 5 5 5 5 5 5 5 5 5 6 7 6 6 6 6 6 6 6 6 6 6 6
3 3 3 3 3 3 3 3 4 4 4 5 4 4 4 4 4 5 5 5 4 4 4 4 5 6 5 5 5 6 7 7 6 6 6 6 6 6 6 7 7 7 7
3 3 3 3 3 3 4 4 4 4 4 4 4 4 4 4 4 5 5 4 4 4 4 5 6 7 9 7 6 6 7 8 7 6 8 8 7 7 6 7 7 7 7
3 3 3 3 3 3 3 4 4 4 4 4 4 4 4 4 4 4 4 4 5 5 6 6 5 6 8 10 9 8 10 12 10 7 7 7 7 8 7 7 7 7 7
3 3 3 3 3 3 3 3 4 4 4 4 4 4 4 4 5 5 4 4 5 6 6 6 7 8 10 9 10 11 12 12 11 10 6 5 6 7 6 6 7 6 7
Wind_Direction
200 195 188 185 176 168 180 204 209 209 179 159 154 136 164 179 165 159 185 169 170 228 272 251 276 277 264 265 265 262 255 247 263 279 276 284 285 292 300 294 289 287 289
194 183 187 180 161 165 188 200 178 175 166 161 134 123 134 163 154 157 177 169 166 195 243 236 276 286 284 278 267 266 263 254 256 276 286 286 281 288 293 293 296 294 288
179 175 176 175 175 188 201 196 174 165 146 118 124 147 171 181 169 167 169 173 182 210 226 229 253 256 272 275 269 268 268 270 261 269 282 283 281 292 299 296 292 289 291
173 176 187 196 194 198 195 179 168 153 147 153 153 174 184 176 164 167 168 182 204 242 256 254 255 245 254 259 264 267 268 268 268 271 280 287 286 292 294 298 301 297 295
175 187 206 200 184 173 170 171 150 144 163 167 150 159 173 175 193 179 184 193 221 258 280 278 278 284 285 279 277 270 264 264 271 274 280 288 290 299 294 295 294 300 291
182 200 197 178 174 175 177 163 150 164 168 150 163 169 177 214 165 178 185 194 233 260 281 291 289 291 294 286 282 282 277 267 269 271 276 279 285 288 291 292 296 305 298
185 192 186 180 182 187 169 155 176 193 179 176 187 182 208 253 259 220 213 196 239 264 274 285 288 294 283 281 285 286 280 278 273 269 273 275 282 285 289 289 286 283 281
184 190 190 182 189 182 169 182 200 200 196 205 205 204 217 280 277 252 236 221 251 270 270 271 274 286 287 285 284 284 280 277 277 268 267 274 280 286 277 281 284 288 285
191 196 196 186 186 181 191 205 205 198 205 213 196 201 227 270 275 263 247 233 259 274 275 275 273 275 286 288 280 279 283 284 285 279 277 280 286 289 294 297 296 296 292
203 199 188 182 184 190 200 202 198 196 206 201 219 229 242 264 283 277 259 238 264 273 275 275 273 276 286 286 269 268 276 282 291 295 285 285 284 284 287 271 269 274 284
191 180 179 185 187 190 188 183 178 179 181 210 242 261 260 266 278 277 268 243 250 267 274 276 275 285 285 284 276 265 275 289 290 285 285 285 285 281 276 271 261 256 263
167 173 181 184 183 173 172 174 169 173 190 221 246 266 268 269 269 277 276 267 263 256 267 275 282 294 291 288 282 283 288 289 281 281 281 282 285 285 284 280 273 267 261
166 180 181 174 176 175 177 180 178 183 199 225 234 255 271 270 270 271 273 273 272 262 267 280 291 297 296 288 286 290 288 277 274 274 277 278 280 282 286 286 279 274 272
177 183 177 173 178 182 190 187 189 196 206 221 233 246 261 272 270 270 269 275 278 276 280 288 294 295 293 290 290 284 272 268 266 269 276 280 284 283 279 281 285 295 292
179 181 181 182 184 190 200 206 206 213 210 214 223 225 239 259 266 275 272 265 262 267 294 299 298 300 299 296 292 284 278 276 271 272 276 283 285 285 284 285 277 280 276
177 184 186 184 187 190 200 241 242 235 243 245 248 244 250 261 280 281 282 282 285 294 288 277 280 281 281 286 289 290 283 278 277 278 278 278 282 285 287 287 278 273 277
182 184 182 185 189 193 199 213 252 269 254 254 257 259 262 271 278 282 287 290 287 290 255 263 269 274 277 278 278 279 280 280 280 278 277 277 279 281 282 284 283 280 279
179 181 182 191 194 198 204 213 221 241 267 273 269 268 275 279 284 288 295 293 281 276 254 259 266 270 274 276 277 280 284 289 283 279 277 276 274 275 278 279 279 276 282
181 186 187 190 194 198 202 209 220 234 248 267 285 284 279 283 286 287 291 256 256 262 260 259 261 265 268 271 273 274 275 277 279 280 277 275 275 278 277 276 277 277 277
194 192 184 186 192 198 203 212 226 237 248 255 259 265 272 263 263 269 259 253 255 259 261 262 263 263 267 269 271 273 274 273 274 271 275 277 273 270 274 278 277 278 277
194 193 187 190 202 207 211 218 226 233 244 252 256 259 263 252 253 256 256 254 253 257 262 265 267 268 266 267 268 270 271 273 272 271 274 275 276 276 274 273 275 276 279
188 196 199 207 211 215 224 228 230 238 246 254 265 269 271 269 261 260 260 258 256 255 255 259 265 264 261 262 266 270 271 272 272 271 273 274 274 274 275 275 277 282 282
187 196 207 217 219 223 228 230 235 244 251 254 258 260 257 257 261 264 267 268 267 266 263 258 262 268 265 260 257 257 262 266 266 265 270 273 272 271 272 274 276 282 282
194 200 208 216 219 223 231 236 237 243 249 256 257 257 257 257 261 266 269 273 275 276 274 268 264 266 269 270 266 260 258 263 262 259 257 262 267 271 270 271 273 276 279
194 201 208 214 218 225 233 239 242 245 248 253 256 260 264 264 265 266 266 268 270 271 272 273 274 273 273 273 272 271 270 272 269 262 259 258 261 263 266 268 274 281 281
198 204 210 215 221 225 230 238 245 249 252 256 257 259 263 266 269 271 271 270 274 277 277 276 272 273 278 279 277 279 279 279 276 270 263 257 261 266 268 272 274 278 280